EA3IR Weather Reports


Display with metric or nautical units.
time (UTC)temp
F
wind
direction
speed
MPH
gust
MPH
rain 1hr
in
rain 24hr
in
rain mn
in
humidity
%
barometer
mb
20260507130120 66 70 1.0 3.0 0.00 0.57 0.00 67 1013.6
20260507125620 66 70 1.0 3.0 0.00 0.57 0.00 67 1013.6
20260507125120 66 70 1.0 3.0 0.00 0.57 0.00 67 1013.6
20260507124620 66 70 1.0 3.0 0.00 0.57 0.00 67 1013.6
20260507124120 66 70 1.0 3.0 0.00 0.57 0.00 67 1013.6
20260507123620 66 70 1.0 3.0 0.00 0.57 0.00 67 1013.6
20260507123120 66 70 1.0 3.0 0.00 0.57 0.00 67 1013.6
20260507122620 66 70 1.0 3.0 0.00 0.57 0.00 67 1013.6
20260507122121 66 70 1.0 3.0 0.00 0.57 0.00 67 1013.6
20260507120620 66 70 1.0 3.0 0.00 0.57 0.00 67 1013.6
20260507120120 66 70 1.0 3.0 0.00 0.57 0.00 67 1013.6
20260507115620 66 70 1.0 3.0 0.00 0.57 0.00 67 1013.6
20260507115121 66 70 1.0 3.0 0.00 0.57 0.00 67 1013.6
20260507114120 66 70 1.0 3.0 0.00 0.57 0.00 67 1013.6
20260507113620 66 70 1.0 3.0 0.00 0.57 0.00 67 1013.6
20260507113121 66 70 1.0 3.0 0.00 0.57 0.00 67 1013.6
20260507112619 66 70 1.0 3.0 0.00 0.57 0.00 67 1013.6
20260507111619 66 70 1.0 3.0 0.00 0.57 0.00 67 1013.6
20260507111122 66 70 1.0 3.0 0.00 0.57 0.00 67 1013.6
20260507110620 66 70 1.0 3.0 0.00 0.57 0.00 67 1013.6
20260507110120 66 70 1.0 3.0 0.00 0.57 0.00 67 1013.6
20260507105620 66 70 1.0 3.0 0.00 0.57 0.00 67 1013.6
20260507105120 66 70 1.0 3.0 0.00 0.57 0.00 67 1013.6
20260507104120 66 70 1.0 3.0 0.00 0.57 0.00 67 1013.6
20260507102620 66 70 1.0 3.0 0.00 0.57 0.00 67 1013.6
20260507102120 66 70 1.0 3.0 0.00 0.57 0.00 67 1013.6
20260507101620 66 70 1.0 3.0 0.00 0.57 0.00 67 1013.6
20260507100620 66 70 1.0 3.0 0.00 0.57 0.00 67 1013.6
20260507100120 66 70 1.0 3.0 0.00 0.57 0.00 67 1013.6
20260507095620 66 70 1.0 3.0 0.00 0.57 0.00 67 1013.6
20260507095120 66 70 1.0 3.0 0.00 0.57 0.00 67 1013.6
20260507094620 66 70 1.0 3.0 0.00 0.57 0.00 67 1013.6
20260507094120 66 70 1.0 3.0 0.00 0.57 0.00 67 1013.6
20260507093620 66 70 1.0 3.0 0.00 0.57 0.00 67 1013.6
20260507093120 66 70 1.0 3.0 0.00 0.57 0.00 67 1013.6
20260507092120 66 70 1.0 3.0 0.00 0.57 0.00 67 1013.6
20260507091620 66 70 1.0 3.0 0.00 0.57 0.00 67 1013.6
20260507091120 66 70 1.0 3.0 0.00 0.57 0.00 67 1013.6
20260507090620 65 76 2.0 4.0 0.00 0.59 0.02 64 1013.6
20260507090121 65 205 2.0 4.0 0.00 0.59 0.02 67 1013.6
20260507085120 66 140 1.0 3.0 0.00 0.59 0.02 68 1013.7
20260507084619 65 107 1.0 4.0 0.00 0.59 0.02 68 1013.7
20260507083620 65 72 2.0 6.0 0.00 0.59 0.02 69 1013.8
20260507082620 64 100 1.0 2.0 0.00 0.59 0.02 70 1013.9
20260507082120 64 74 1.0 4.0 0.00 0.59 0.02 71 1013.9
20260507081620 63 76 2.0 4.0 0.00 0.59 0.02 72 1014.0
20260507081120 63 107 2.0 6.0 0.00 0.59 0.02 71 1014.1
20260507080120 63 111 2.0 3.0 0.00 0.59 0.02 71 1014.1
20260507075620 63 129 2.0 5.0 0.00 0.59 0.02 73 1014.1
20260507074619 63 41 1.0 4.0 0.00 0.59 0.02 72 1013.9
20260507074120 63 20 1.0 3.0 0.00 0.59 0.02 74 1013.9
20260507073120 62 20 1.0 4.0 0.00 0.59 0.02 75 1013.9
20260507072620 62 20 1.0 3.0 0.00 0.59 0.02 77 1013.9
20260507072120 62 20 1.0 2.0 0.00 0.59 0.02 80 1013.9
20260507071620 61 20 2.0 3.0 0.00 0.59 0.02 78 1013.8
20260507071121 61 20 1.0 3.0 0.00 0.59 0.02 82 1013.7
20260507070620 60 20 1.0 3.0 0.00 0.59 0.02 82 1013.7
20260507070120 60 20 1.0 3.0 0.00 0.59 0.02 82 1013.7
20260507065619 60 20 1.0 3.0 0.00 0.59 0.02 82 1013.8
20260507064619 60 20 1.0 2.0 0.02 0.59 0.02 83 1013.7
20260507064120 59 20 1.0 2.0 0.02 0.59 0.02 84 1013.7
20260507063619 59 20 1.0 2.0 0.02 0.59 0.02 85 1013.7
20260507063120 58 11 1.0 4.0 0.02 0.59 0.02 87 1013.6
20260507062619 58 263 0.0 1.0 0.02 0.59 0.02 88 1013.6
20260507062120 57 0 0.0 0.0 0.02 0.59 0.02 89 1013.6
20260507061619 56 262 1.0 1.0 0.02 0.59 0.02 89 1013.5
20260507061120 56 260 0.0 2.0 0.02 0.59 0.02 89 1013.4
20260507060619 55 260 0.0 1.0 0.02 0.59 0.02 90 1013.3
20260507060121 55 0 0.0 0.0 0.02 0.59 0.02 91 1013.4
20260507055620 54 261 0.0 1.0 0.02 0.59 0.02 91 1013.4
20260507055120 53 261 0.0 1.0 0.00 0.57 0.00 90 1013.3
20260507054620 53 261 0.0 1.0 0.00 0.57 0.00 91 1013.3
20260507054120 53 261 0.0 1.0 0.00 0.57 0.00 90 1013.3
20260507053620 52 0 0.0 0.0 0.00 0.57 0.00 90 1013.3
20260507053119 52 261 0.0 1.0 0.00 0.57 0.00 90 1013.3
20260507052620 52 261 0.0 1.0 0.00 0.57 0.00 90 1013.3
20260507052120 52 261 0.0 1.0 0.00 0.57 0.00 90 1013.2
20260507051620 52 261 0.0 2.0 0.00 0.57 0.00 90 1013.2
20260507051119 52 0 0.0 0.0 0.00 0.57 0.00 90 1013.2
20260507050619 52 261 0.0 1.0 0.00 0.57 0.00 90 1013.2
20260507050121 51 0 1.0 0.0 0.00 0.57 0.00 90 1013.1
20260507045120 51 264 1.0 2.0 0.00 0.57 0.00 90 1013.0
20260507044619 51 308 1.0 2.0 0.00 0.57 0.00 90 1013.1
20260507043619 51 0 0.0 0.0 0.00 0.57 0.00 90 1013.1
20260507042619 51 310 0.0 1.0 0.00 0.57 0.00 90 1013.0
20260507041619 52 309 0.0 1.0 0.00 0.57 0.00 90 1013.0
20260507040619 52 0 0.0 0.0 0.00 0.57 0.00 89 1013.0
20260507040120 52 309 0.0 1.0 0.00 0.57 0.00 90 1013.0
20260507035620 52 309 0.0 1.0 0.00 0.57 0.00 90 1012.9
20260507034620 52 310 0.0 1.0 0.00 0.57 0.00 90 1012.9
20260507033620 53 333 1.0 3.0 0.00 0.57 0.00 90 1012.9
20260507033120 53 19 1.0 2.0 0.00 0.57 0.00 90 1012.9
20260507032620 53 19 0.0 2.0 0.00 0.57 0.00 90 1012.8
20260507032120 53 0 0.0 0.0 0.00 0.57 0.00 90 1012.9
20260507031620 53 0 0.0 0.0 0.00 0.57 0.00 90 1012.8
20260507031121 53 19 0.0 1.0 0.00 0.57 0.00 90 1012.8
20260507030120 53 19 1.0 1.0 0.00 0.57 0.00 90 1012.9
20260507025619 54 249 1.0 2.0 0.00 0.57 0.00 90 1012.9
20260507025120 54 250 2.0 3.0 0.00 0.57 0.00 90 1012.9
20260507024620 54 249 3.0 4.0 0.00 0.57 0.00 90 1012.9
20260507024120 54 225 3.0 5.0 0.00 0.57 0.00 90 1013.0
20260507023619 54 220 3.0 5.0 0.00 0.57 0.00 90 1012.9
20260507023121 53 303 2.0 3.0 0.00 0.57 0.00 90 1012.9
20260507022619 54 302 2.0 3.0 0.00 0.57 0.00 90 1013.0
20260507022119 54 303 1.0 2.0 0.00 0.57 0.00 90 1013.0
20260507021619 54 302 1.0 2.0 0.00 0.57 0.00 90 1013.0
20260507021120 54 302 1.0 2.0 0.00 0.57 0.00 90 1013.0
20260507020620 54 303 0.0 1.0 0.00 0.57 0.00 90 1012.9
20260507020120 54 302 0.0 1.0 0.00 0.57 0.00 90 1013.0
20260507015619 54 302 0.0 1.0 0.00 0.57 0.00 90 1012.9
20260507015119 54 0 0.0 0.0 0.00 0.57 0.00 90 1012.9
20260507014620 54 0 0.0 0.0 0.00 0.57 0.00 90 1012.9
20260507014119 55 302 0.0 1.0 0.00 0.57 0.00 90 1013.1
20260507013620 55 0 0.0 0.0 0.00 0.57 0.00 90 1013.1
20260507013119 55 0 0.0 0.0 0.00 0.57 0.00 90 1013.2
20260507012619 55 0 0.0 0.0 0.00 0.57 0.00 90 1013.2
20260507012121 55 302 0.0 1.0 0.00 0.57 0.00 90 1013.3
20260507011620 55 303 0.0 1.0 0.00 0.57 0.00 90 1013.3
20260507011120 55 0 0.0 0.0 0.00 0.57 0.00 90 1013.4
20260507010619 55 0 0.0 0.0 0.00 0.57 0.00 90 1013.4
20260507010120 55 302 0.0 1.0 0.00 0.57 0.00 90 1013.4
20260507004621 55 302 0.0 1.0 0.00 0.57 0.00 90 1013.5
20260507004120 55 0 0.0 0.0 0.00 0.57 0.00 90 1013.6
20260507003120 55 302 0.0 1.0 0.00 0.57 0.00 90 1013.7
20260507002119 55 0 0.0 0.0 0.00 0.57 0.00 90 1013.7
20260507001619 55 0 0.0 0.0 0.00 0.57 0.00 90 1013.8
20260507001120 55 0 0.0 0.0 0.00 0.57 0.00 90 1013.8
20260507000619 55 0 0.0 0.0 0.00 0.57 0.00 90 1013.8
20260507000120 55 0 0.0 0.0 0.00 0.57 0.00 90 1013.8
20260506235619 55 0 0.0 0.0 0.00 0.57 0.00 89 1013.8
20260506235120 55 303 0.0 1.0 0.00 0.57 0.00 89 1013.8
20260506234621 55 303 0.0 1.0 0.00 0.57 0.00 89 1013.8
20260506234120 55 0 0.0 0.0 0.00 0.57 0.00 89 1013.8
20260506233119 55 302 0.0 1.0 0.00 0.57 0.00 89 1013.9
20260506232620 56 0 0.0 0.0 0.00 0.57 0.00 88 1013.9
20260506232121 56 302 0.0 1.0 0.00 0.57 0.00 88 1013.9
20260506231619 56 302 0.0 1.0 0.00 0.57 0.00 88 1013.9
20260506231119 56 303 0.0 1.0 0.00 0.57 0.00 87 1013.9
20260506230619 56 302 1.0 1.0 0.00 0.57 0.00 87 1014.0
20260506230121 56 302 1.0 3.0 0.00 0.57 0.00 87 1014.0
20260506225620 56 270 2.0 2.0 0.00 0.57 0.00 86 1014.0
20260506225120 56 258 2.0 4.0 0.00 0.57 0.00 86 1013.9
20260506224620 56 253 2.0 4.0 0.00 0.57 0.00 86 1013.9
20260506224120 56 244 2.0 4.0 0.00 0.57 0.00 87 1014.0
20260506223620 56 248 2.0 5.0 0.00 0.57 0.00 87 1013.9
20260506223120 56 251 2.0 6.0 0.00 0.57 0.00 88 1013.9
20260506222620 55 254 2.0 7.0 0.00 0.57 0.00 88 1013.9
20260506222120 55 254 3.0 4.0 0.00 0.57 0.00 89 1013.9
20260506221620 55 255 2.0 5.0 0.00 0.57 0.00 89 1013.8
20260506221119 55 256 2.0 6.0 0.00 0.57 0.00 89 1013.9
20260506220620 55 265 2.0 4.0 0.00 0.57 0.00 90 1013.9
20260506220123 55 258 2.0 4.0 0.00 0.57 0.00 90 1013.9
20260506215619 55 243 2.0 3.0 0.00 0.57 0.57 90 1014.0
20260506215120 55 250 2.0 4.0 0.00 0.57 0.57 90 1014.0
20260506214620 55 256 2.0 4.0 0.00 0.57 0.57 90 1013.9
20260506214120 55 249 2.0 4.0 0.00 0.57 0.57 90 1013.8
20260506213619 55 265 3.0 5.0 0.00 0.57 0.57 90 1013.9
20260506213121 55 258 3.0 5.0 0.00 0.57 0.57 90 1013.9
20260506212121 55 259 2.0 5.0 0.00 0.57 0.57 90 1013.9
20260506211120 55 327 1.0 3.0 0.00 0.57 0.57 90 1013.8
20260506210120 55 327 0.0 1.0 0.00 0.57 0.57 90 1013.8
20260506205619 56 0 0.0 0.0 0.00 0.57 0.57 90 1013.8
20260506205120 56 0 0.0 0.0 0.00 0.57 0.57 90 1013.9
20260506204620 56 0 0.0 0.0 0.01 0.57 0.57 90 1013.9
20260506204120 56 0 0.0 0.0 0.01 0.57 0.57 90 1013.9
20260506203620 56 0 0.0 0.0 0.01 0.57 0.57 90 1013.9
20260506203119 56 327 0.0 1.0 0.01 0.57 0.57 90 1013.9
20260506202619 56 0 0.0 0.0 0.02 0.57 0.57 90 1013.8
20260506202120 56 327 1.0 2.0 0.02 0.57 0.57 90 1013.8
20260506201621 56 327 1.0 3.0 0.02 0.57 0.57 90 1013.7
20260506200620 56 322 3.0 4.0 0.02 0.57 0.57 90 1013.6
20260506200120 56 334 3.0 7.0 0.02 0.57 0.57 90 1013.5
20260506195619 56 354 3.0 5.0 0.02 0.57 0.57 90 1013.5
20260506195120 56 2 3.0 5.0 0.02 0.57 0.57 90 1013.4
20260506194619 56 346 2.0 4.0 0.01 0.56 0.56 90 1013.3
20260506193619 56 326 3.0 4.0 0.01 0.56 0.56 90 1013.2
20260506193120 56 332 3.0 5.0 0.01 0.56 0.56 90 1013.2
20260506192620 56 339 3.0 7.0 0.00 0.55 0.55 90 1013.0
20260506191619 56 325 1.0 3.0 0.00 0.55 0.55 90 1012.9
20260506191121 56 313 1.0 4.0 0.00 0.57 0.55 90 1012.8
20260506185619 56 300 2.0 3.0 0.00 0.61 0.55 90 1012.7
20260506185120 56 298 2.0 3.0 0.00 0.61 0.55 90 1012.6
20260506184621 56 307 2.0 7.0 0.00 0.61 0.55 90 1012.6
20260506183620 57 283 3.0 4.0 0.00 0.61 0.55 90 1012.6
20260506183120 57 305 3.0 5.0 0.00 0.61 0.55 90 1012.5
20260506182620 57 308 3.0 5.0 0.00 0.61 0.55 90 1012.5
20260506182120 57 297 3.0 9.0 0.00 0.61 0.55 90 1012.5
20260506181620 57 321 3.0 6.0 0.00 0.61 0.55 90 1012.4
20260506181120 57 306 2.0 8.0 0.00 0.61 0.55 90 1012.3
20260506180120 57 298 1.0 4.0 0.02 0.61 0.55 90 1012.3
20260506175620 57 21 1.0 1.0 0.02 0.61 0.55 90 1012.1
20260506175119 57 3 2.0 7.0 0.02 0.61 0.55 90 1011.9
20260506174619 57 321 2.0 4.0 0.02 0.61 0.55 90 1011.8
20260506174120 57 313 2.0 6.0 0.02 0.61 0.55 90 1011.8
20260506173620 57 13 3.0 4.0 0.02 0.61 0.55 90 1011.7
20260506173120 57 16 2.0 5.0 0.02 0.61 0.55 90 1011.6
20260506172620 57 339 1.0 4.0 0.02 0.61 0.55 90 1011.7
20260506172120 57 304 1.0 2.0 0.02 0.61 0.55 90 1011.8
20260506171619 57 304 1.0 2.0 0.02 0.61 0.55 90 1011.7
20260506170620 57 64 1.0 3.0 0.02 0.61 0.55 90 1011.5
20260506170120 57 280 1.0 2.0 0.01 0.60 0.54 90 1011.5
20260506165619 57 280 1.0 1.0 0.01 0.60 0.54 90 1011.7
20260506165119 57 280 1.0 2.0 0.01 0.60 0.54 90 1011.8
20260506164619 56 268 1.0 4.0 0.01 0.60 0.54 90 1011.7
20260506164120 57 347 1.0 2.0 0.01 0.60 0.54 90 1011.6
20260506163121 56 15 2.0 3.0 0.02 0.59 0.53 90 1011.5
20260506162120 57 24 3.0 5.0 0.12 0.59 0.53 89 1011.4
20260506161121 57 358 2.0 4.0 0.40 0.59 0.53 90 1011.5
20260506160619 56 3 3.0 6.0 0.46 0.59 0.53 90 1011.4
20260506160120 56 43 3.0 7.0 0.50 0.59 0.53 89 1011.4
20260506155619 56 87 3.0 5.0 0.52 0.59 0.53 89 1011.3
20260506155119 56 67 5.0 6.0 0.53 0.59 0.53 89 1011.2
20260506154620 56 49 6.0 13.0 0.53 0.59 0.53 89 1011.2
20260506154120 56 31 5.0 13.0 0.53 0.59 0.53 89 1011.1
20260506153621 56 34 7.0 9.0 0.53 0.59 0.53 89 1010.9
20260506153119 56 32 9.0 16.0 0.50 0.56 0.50 89 1010.7
20260506152620 56 23 9.0 16.0 0.46 0.53 0.46 88 1010.8
20260506151119 57 316 12.0 19.0 0.12 0.21 0.12 85 1011.1
20260506150620 58 325 9.0 25.0 0.07 0.18 0.07 84 1010.3
20260506150121 59 1 7.0 18.0 0.02 0.17 0.02 82 1010.4
20260506145120 61 34 5.0 10.0 0.00 0.19 0.00 76 1010.4
20260506144619 61 57 4.0 13.0 0.00 0.24 0.00 73 1010.1
20260506144121 62 64 5.0 7.0 0.00 0.27 0.00 73 1010.1
20260506143119 62 108 5.0 12.0 0.00 0.28 0.00 71 1010.1
20260506142620 62 66 4.0 9.0 0.00 0.28 0.00 69 1010.1
20260506142120 62 91 4.0 10.0 0.00 0.29 0.00 69 1010.1
20260506141619 63 89 5.0 10.0 0.00 0.34 0.00 69 1010.3
20260506141120 63 99 5.0 11.0 0.00 0.35 0.00 68 1010.3
20260506140619 64 118 4.0 13.0 0.00 0.35 0.00 67 1010.5
20260506140120 64 72 4.0 9.0 0.00 0.35 0.00 66 1010.5
20260506135620 65 106 4.0 8.0 0.00 0.35 0.00 65 1010.5
20260506135120 65 110 4.0 9.0 0.00 0.35 0.00 66 1010.6
20260506134620 64 87 4.0 10.0 0.00 0.35 0.00 67 1010.6
20260506134121 64 103 4.0 11.0 0.00 0.35 0.00 66 1010.8
20260506133619 65 109 4.0 8.0 0.00 0.35 0.00 67 1010.9
20260506133119 65 117 4.0 8.0 0.00 0.35 0.00 65 1010.9
20260506132619 66 112 4.0 11.0 0.00 0.35 0.00 63 1010.9
20260506132121 66 114 4.0 10.0 0.00 0.35 0.00 65 1010.9
20260506131119 65 111 5.0 13.0 0.00 0.35 0.00 64 1011.1
20260506130620 66 115 5.0 9.0 0.00 0.35 0.00 63 1011.0